Year,Month,Day,Hour,Minute,Value (Times are PST for temperature in C)
2012,07,21,00,00,17.60
2012,07,21,00,01,17.60
2012,07,21,00,02,17.50
2012,07,21,00,03,17.50
2012,07,21,00,04,17.50
2012,07,21,00,05,17.50
2012,07,21,00,06,17.50
2012,07,21,00,07,17.40
2012,07,21,00,08,17.40
2012,07,21,00,09,17.40
2012,07,21,00,10,17.40
2012,07,21,00,11,17.40
2012,07,21,00,12,17.40
2012,07,21,00,13,17.40
2012,07,21,00,14,17.40
2012,07,21,00,15,17.30
2012,07,21,00,16,17.30
2012,07,21,00,17,17.30
2012,07,21,00,18,17.30
2012,07,21,00,19,17.30
2012,07,21,00,20,17.30
2012,07,21,00,21,17.30
2012,07,21,00,22,17.20
2012,07,21,00,23,17.20
2012,07,21,00,24,17.20
2012,07,21,00,25,17.20
2012,07,21,00,26,17.20
2012,07,21,00,27,17.20
2012,07,21,00,28,17.20
2012,07,21,00,29,17.20
2012,07,21,00,30,17.20
2012,07,21,00,31,17.20
2012,07,21,00,32,17.20
2012,07,21,00,33,17.20
2012,07,21,00,34,17.20
2012,07,21,00,35,17.20
2012,07,21,00,36,17.20
2012,07,21,00,37,17.10
2012,07,21,00,38,17.00
2012,07,21,00,39,17.00
2012,07,21,00,40,16.90
2012,07,21,00,41,16.90
2012,07,21,00,42,16.80
2012,07,21,00,43,16.80
2012,07,21,00,44,16.80
2012,07,21,00,45,16.70
2012,07,21,00,46,16.70
2012,07,21,00,47,16.70
2012,07,21,00,48,16.70
2012,07,21,00,49,16.70
2012,07,21,00,50,16.70
2012,07,21,00,51,16.60
2012,07,21,00,52,16.60
2012,07,21,00,53,16.60
2012,07,21,00,54,16.60
2012,07,21,00,55,16.60
2012,07,21,00,56,16.60
2012,07,21,00,57,16.60
2012,07,21,00,58,16.60
2012,07,21,00,59,16.60
2012,07,21,01,00,16.60
2012,07,21,01,01,16.50
2012,07,21,01,02,16.50
2012,07,21,01,03,16.50
2012,07,21,01,04,16.50
2012,07,21,01,05,16.40
2012,07,21,01,06,16.40
2012,07,21,01,07,16.40
2012,07,21,01,08,16.40
2012,07,21,01,09,16.30
2012,07,21,01,10,16.30
2012,07,21,01,11,16.30
2012,07,21,01,12,16.30
2012,07,21,01,13,16.30
2012,07,21,01,14,16.20
2012,07,21,01,15,16.20
2012,07,21,01,16,16.20
2012,07,21,01,17,16.10
2012,07,21,01,18,16.10
2012,07,21,01,19,16.10
2012,07,21,01,20,16.10
2012,07,21,01,21,16.00
2012,07,21,01,22,16.00
2012,07,21,01,23,15.90
2012,07,21,01,24,15.90
2012,07,21,01,25,15.80
2012,07,21,01,26,15.80
2012,07,21,01,27,15.70
2012,07,21,01,28,15.70
2012,07,21,01,29,15.70
2012,07,21,01,30,15.70
2012,07,21,01,31,15.60
2012,07,21,01,32,15.60
2012,07,21,01,33,15.60
2012,07,21,01,34,15.50
2012,07,21,01,35,15.50
2012,07,21,01,36,15.40
2012,07,21,01,37,15.40
2012,07,21,01,38,15.30
2012,07,21,01,39,15.30
2012,07,21,01,40,15.30
2012,07,21,01,41,15.30
2012,07,21,01,42,15.30
2012,07,21,01,43,15.20
2012,07,21,01,44,15.20
2012,07,21,01,45,15.20
2012,07,21,01,46,15.20
2012,07,21,01,47,15.20
2012,07,21,01,48,15.20
2012,07,21,01,49,15.20
2012,07,21,01,50,15.10
2012,07,21,01,51,15.10
2012,07,21,01,52,15.10
2012,07,21,01,53,15.10
2012,07,21,01,54,15.10
2012,07,21,01,55,15.10
2012,07,21,01,56,15.10
2012,07,21,01,57,15.10
2012,07,21,01,58,15.00
2012,07,21,01,59,15.00
2012,07,21,02,00,15.00
2012,07,21,02,01,14.90
2012,07,21,02,02,14.90
2012,07,21,02,03,14.90
2012,07,21,02,04,14.80
2012,07,21,02,05,14.80
2012,07,21,02,06,14.80
2012,07,21,02,07,14.80
2012,07,21,02,08,14.80
2012,07,21,02,09,14.80
2012,07,21,02,10,14.80
2012,07,21,02,11,14.70
2012,07,21,02,12,14.70
2012,07,21,02,13,14.70
2012,07,21,02,14,14.70
2012,07,21,02,15,14.70
2012,07,21,02,16,14.70
2012,07,21,02,17,14.70
2012,07,21,02,18,14.70
2012,07,21,02,19,14.70
2012,07,21,02,20,14.70
2012,07,21,02,21,14.70
2012,07,21,02,22,14.70
2012,07,21,02,23,14.70
2012,07,21,02,24,14.70
2012,07,21,02,25,14.70
2012,07,21,02,26,14.70
2012,07,21,02,27,14.70
2012,07,21,02,28,14.70
2012,07,21,02,29,14.80
2012,07,21,02,30,14.80
2012,07,21,02,31,14.80
2012,07,21,02,32,14.80
2012,07,21,02,33,14.80
2012,07,21,02,34,14.80
2012,07,21,02,35,14.80
2012,07,21,02,36,14.80
2012,07,21,02,37,14.80
2012,07,21,02,38,14.80
2012,07,21,02,39,14.80
2012,07,21,02,40,14.90
2012,07,21,02,41,14.90
2012,07,21,02,42,15.00
2012,07,21,02,43,15.10
2012,07,21,02,44,15.20
2012,07,21,02,45,15.20
2012,07,21,02,46,15.30
2012,07,21,02,47,15.30
2012,07,21,02,48,15.40
2012,07,21,02,49,15.40
2012,07,21,02,50,15.40
2012,07,21,02,51,15.40
2012,07,21,02,52,15.40
2012,07,21,02,53,15.40
2012,07,21,02,54,15.40
2012,07,21,02,55,15.40
2012,07,21,02,56,15.40
2012,07,21,02,57,15.40
2012,07,21,02,58,15.30
2012,07,21,02,59,15.30
2012,07,21,03,00,15.30
2012,07,21,03,01,15.30
2012,07,21,03,02,15.30
2012,07,21,03,03,15.30
2012,07,21,03,04,15.30
2012,07,21,03,05,15.30
2012,07,21,03,06,15.30
2012,07,21,03,07,15.30
2012,07,21,03,08,15.30
2012,07,21,03,09,15.20
2012,07,21,03,10,15.20
2012,07,21,03,11,15.20
2012,07,21,03,12,15.20
2012,07,21,03,13,15.20
2012,07,21,03,14,15.20
2012,07,21,03,15,15.20
2012,07,21,03,16,15.20
2012,07,21,03,17,15.20
2012,07,21,03,18,15.20
2012,07,21,03,19,15.20
2012,07,21,03,20,15.20
2012,07,21,03,21,15.20
2012,07,21,03,22,15.20
2012,07,21,03,23,15.20
2012,07,21,03,24,15.20
2012,07,21,03,25,15.20
2012,07,21,03,26,15.30
2012,07,21,03,27,15.30
2012,07,21,03,28,15.30
2012,07,21,03,29,15.30
2012,07,21,03,30,15.30
2012,07,21,03,31,15.30
2012,07,21,03,32,15.30
2012,07,21,03,33,15.30
2012,07,21,03,34,15.30
2012,07,21,03,35,15.30
2012,07,21,03,36,15.30
2012,07,21,03,37,15.30
2012,07,21,03,38,15.20
2012,07,21,03,39,15.20
2012,07,21,03,40,15.20
2012,07,21,03,41,15.20
2012,07,21,03,42,15.20
2012,07,21,03,43,15.20
2012,07,21,03,44,15.20
2012,07,21,03,45,15.20
2012,07,21,03,46,15.20
2012,07,21,03,47,15.20
2012,07,21,03,48,15.10
2012,07,21,03,49,15.10
2012,07,21,03,50,15.10
2012,07,21,03,51,15.10
2012,07,21,03,52,15.10
2012,07,21,03,53,15.10
2012,07,21,03,54,15.10
2012,07,21,03,55,15.10
2012,07,21,03,56,15.10
2012,07,21,03,57,15.10
2012,07,21,03,58,15.10
2012,07,21,03,59,15.10
2012,07,21,04,00,15.00
2012,07,21,04,01,15.00
2012,07,21,04,02,15.00
2012,07,21,04,03,15.00
2012,07,21,04,04,15.00
2012,07,21,04,05,15.00
2012,07,21,04,06,15.00
2012,07,21,04,07,15.00
2012,07,21,04,08,15.00
2012,07,21,04,09,15.00
2012,07,21,04,10,15.00
2012,07,21,04,11,15.00
2012,07,21,04,12,15.00
2012,07,21,04,13,15.00
2012,07,21,04,14,15.00
2012,07,21,04,15,15.00
2012,07,21,04,16,15.00
2012,07,21,04,17,15.00
2012,07,21,04,18,14.90
2012,07,21,04,19,14.90
2012,07,21,04,20,14.90
2012,07,21,04,21,14.90
2012,07,21,04,22,14.90
2012,07,21,04,23,14.90
2012,07,21,04,24,14.90
2012,07,21,04,25,14.90
2012,07,21,04,26,14.90
2012,07,21,04,27,14.90
2012,07,21,04,28,14.90
2012,07,21,04,29,14.80
2012,07,21,04,30,14.80
2012,07,21,04,31,14.80
2012,07,21,04,32,14.80
2012,07,21,04,33,14.80
2012,07,21,04,34,14.80
2012,07,21,04,35,14.70
2012,07,21,04,36,14.70
2012,07,21,04,37,14.70
2012,07,21,04,38,14.70
2012,07,21,04,39,14.60
2012,07,21,04,40,14.60
2012,07,21,04,41,14.50
2012,07,21,04,42,14.50
2012,07,21,04,43,14.40
2012,07,21,04,44,14.40
2012,07,21,04,45,14.40
2012,07,21,04,46,14.30
2012,07,21,04,47,14.30
2012,07,21,04,48,14.30
2012,07,21,04,49,14.30
2012,07,21,04,50,14.20
2012,07,21,04,51,14.20
2012,07,21,04,52,14.10
2012,07,21,04,53,14.10
2012,07,21,04,54,14.00
2012,07,21,04,55,14.00
2012,07,21,04,56,13.90
2012,07,21,04,57,13.90
2012,07,21,04,58,13.80
2012,07,21,04,59,13.80
2012,07,21,05,00,13.70
2012,07,21,05,01,13.70
2012,07,21,05,02,13.60
2012,07,21,05,03,13.60
2012,07,21,05,04,13.60
2012,07,21,05,05,13.60
2012,07,21,05,06,13.60
2012,07,21,05,07,13.50
2012,07,21,05,08,13.50
2012,07,21,05,09,13.50
2012,07,21,05,10,13.40
2012,07,21,05,11,13.40
2012,07,21,05,12,13.40
2012,07,21,05,13,13.40
2012,07,21,05,14,13.30
2012,07,21,05,15,13.30
2012,07,21,05,16,13.30
2012,07,21,05,17,13.30
2012,07,21,05,18,13.20
2012,07,21,05,19,13.20
2012,07,21,05,20,13.20
2012,07,21,05,21,13.20
2012,07,21,05,22,13.20
2012,07,21,05,23,13.20
2012,07,21,05,24,13.20
2012,07,21,05,25,13.20
2012,07,21,05,26,13.20
2012,07,21,05,27,13.30
2012,07,21,05,28,13.30
2012,07,21,05,29,13.30
2012,07,21,05,30,13.30
2012,07,21,05,31,13.30
2012,07,21,05,32,13.20
2012,07,21,05,33,13.20
2012,07,21,05,34,13.20
2012,07,21,05,35,13.20
2012,07,21,05,36,13.10
2012,07,21,05,37,13.10
2012,07,21,05,38,13.10
2012,07,21,05,39,13.10
2012,07,21,05,40,13.10
2012,07,21,05,41,13.10
2012,07,21,05,42,13.10
2012,07,21,05,43,13.10
2012,07,21,05,44,13.10
2012,07,21,05,45,13.10
2012,07,21,05,46,13.10
2012,07,21,05,47,13.10
2012,07,21,05,48,13.10
2012,07,21,05,49,13.00
2012,07,21,05,50,13.00
2012,07,21,05,51,13.00
2012,07,21,05,52,12.90
2012,07,21,05,53,12.90
2012,07,21,05,54,12.90
2012,07,21,05,55,12.80
2012,07,21,05,56,12.80
2012,07,21,05,57,12.80
2012,07,21,05,58,12.80
2012,07,21,05,59,12.80
2012,07,21,06,00,12.80
2012,07,21,06,01,12.80
2012,07,21,06,02,12.80
2012,07,21,06,03,12.80
2012,07,21,06,04,12.80
2012,07,21,06,05,12.80
2012,07,21,06,06,12.80
2012,07,21,06,07,12.80
2012,07,21,06,08,12.80
2012,07,21,06,09,12.80
2012,07,21,06,10,12.80
2012,07,21,06,11,12.80
2012,07,21,06,12,12.80
2012,07,21,06,13,12.80
2012,07,21,06,14,12.80
2012,07,21,06,15,12.80
2012,07,21,06,16,12.80
2012,07,21,06,17,12.80
2012,07,21,06,18,12.80
2012,07,21,06,19,12.80
2012,07,21,06,20,12.80
2012,07,21,06,21,12.80
2012,07,21,06,22,12.80
2012,07,21,06,23,12.80
2012,07,21,06,24,12.80
2012,07,21,06,25,12.80
2012,07,21,06,26,12.90
2012,07,21,06,27,12.90
2012,07,21,06,28,12.90
2012,07,21,06,29,12.90
2012,07,21,06,30,12.90
2012,07,21,06,31,13.00
2012,07,21,06,32,13.00
2012,07,21,06,33,13.00
2012,07,21,06,34,13.00
2012,07,21,06,35,13.10
2012,07,21,06,36,13.10
2012,07,21,06,37,13.10
2012,07,21,06,38,13.10
2012,07,21,06,39,13.10
2012,07,21,06,40,13.10
2012,07,21,06,41,13.20
2012,07,21,06,42,13.20
2012,07,21,06,43,13.20
2012,07,21,06,44,13.20
2012,07,21,06,45,13.20
2012,07,21,06,46,13.20
2012,07,21,06,47,13.30
2012,07,21,06,48,13.30
2012,07,21,06,49,13.30
2012,07,21,06,50,13.30
2012,07,21,06,51,13.30
2012,07,21,06,52,13.30
2012,07,21,06,53,13.30
2012,07,21,06,54,13.30
2012,07,21,06,55,13.40
2012,07,21,06,56,13.40
2012,07,21,06,57,13.40
2012,07,21,06,58,13.40
2012,07,21,06,59,13.50
2012,07,21,07,00,13.50
2012,07,21,07,01,13.50
2012,07,21,07,02,13.60
2012,07,21,07,03,13.60
2012,07,21,07,04,13.60
2012,07,21,07,05,13.60
2012,07,21,07,06,13.70
2012,07,21,07,07,13.70
2012,07,21,07,08,13.70
2012,07,21,07,09,13.70
2012,07,21,07,10,13.70
2012,07,21,07,11,13.80
2012,07,21,07,12,13.80
2012,07,21,07,13,13.80
2012,07,21,07,14,13.80
2012,07,21,07,15,13.90
2012,07,21,07,16,13.90
2012,07,21,07,17,13.90
2012,07,21,07,18,14.00
2012,07,21,07,19,14.00
2012,07,21,07,20,14.00
2012,07,21,07,21,14.10
2012,07,21,07,22,14.10
2012,07,21,07,23,14.20
2012,07,21,07,24,14.20
2012,07,21,07,25,14.20
2012,07,21,07,26,14.30
2012,07,21,07,27,14.30
2012,07,21,07,28,14.40
2012,07,21,07,29,14.40
2012,07,21,07,30,14.50
2012,07,21,07,31,14.60
2012,07,21,07,32,14.60
2012,07,21,07,33,14.70
2012,07,21,07,34,14.80
2012,07,21,07,35,14.90
2012,07,21,07,36,15.00
2012,07,21,07,37,15.10
2012,07,21,07,38,15.20
2012,07,21,07,39,15.30
2012,07,21,07,40,15.50
2012,07,21,07,41,15.60
2012,07,21,07,42,15.70
2012,07,21,07,43,15.80
2012,07,21,07,44,15.80
2012,07,21,07,45,15.90
2012,07,21,07,46,16.00
2012,07,21,07,47,16.10
2012,07,21,07,48,16.10
2012,07,21,07,49,16.20
2012,07,21,07,50,16.20
2012,07,21,07,51,16.30
2012,07,21,07,52,16.40
2012,07,21,07,53,16.50
2012,07,21,07,54,16.60
2012,07,21,07,55,16.70
2012,07,21,07,56,16.70
2012,07,21,07,57,16.80
2012,07,21,07,58,16.90
2012,07,21,07,59,16.90
2012,07,21,08,00,17.00
2012,07,21,08,01,17.10
2012,07,21,08,02,17.20
2012,07,21,08,03,17.20
2012,07,21,08,04,17.30
2012,07,21,08,05,17.40
2012,07,21,08,06,17.40
2012,07,21,08,07,17.40
2012,07,21,08,08,17.50
2012,07,21,08,09,17.50
2012,07,21,08,10,17.50
2012,07,21,08,11,17.60
2012,07,21,08,12,17.60
2012,07,21,08,13,17.60
2012,07,21,08,14,17.60
2012,07,21,08,15,17.60
2012,07,21,08,16,17.60
2012,07,21,08,17,17.60
2012,07,21,08,18,17.60
2012,07,21,08,19,17.60
2012,07,21,08,20,17.60
2012,07,21,08,21,17.60
2012,07,21,08,22,17.70
2012,07,21,08,23,17.70
2012,07,21,08,24,17.70
2012,07,21,08,25,17.80
2012,07,21,08,26,17.80
2012,07,21,08,27,17.80
2012,07,21,08,28,17.90
2012,07,21,08,29,17.90
2012,07,21,08,30,17.90
2012,07,21,08,31,18.00
2012,07,21,08,32,18.10
2012,07,21,08,33,18.10
2012,07,21,08,34,18.10
2012,07,21,08,35,18.10
2012,07,21,08,36,18.10
2012,07,21,08,37,18.10
2012,07,21,08,38,18.10
2012,07,21,08,39,18.20
2012,07,21,08,40,18.20
2012,07,21,08,41,18.20
2012,07,21,08,42,18.10
2012,07,21,08,43,18.10
2012,07,21,08,44,18.20
2012,07,21,08,45,18.20
2012,07,21,08,46,18.20
2012,07,21,08,47,18.20
2012,07,21,08,48,18.20
2012,07,21,08,49,18.20
2012,07,21,08,50,18.20
2012,07,21,08,51,18.20
2012,07,21,08,52,18.20
2012,07,21,08,53,18.20
2012,07,21,08,54,18.20
2012,07,21,08,55,18.20
2012,07,21,08,56,18.20
2012,07,21,08,57,18.20
2012,07,21,08,58,18.20
2012,07,21,08,59,18.20
2012,07,21,09,00,18.20
2012,07,21,09,01,18.20
2012,07,21,09,02,18.30
2012,07,21,09,03,18.30
2012,07,21,09,04,18.30
2012,07,21,09,05,18.30
2012,07,21,09,06,18.30
2012,07,21,09,07,18.40
2012,07,21,09,08,18.50
2012,07,21,09,09,18.60
2012,07,21,09,10,18.70
2012,07,21,09,11,18.70
2012,07,21,09,12,18.80
2012,07,21,09,13,18.80
2012,07,21,09,14,18.80
2012,07,21,09,15,18.80
2012,07,21,09,16,18.90
2012,07,21,09,17,18.90
2012,07,21,09,18,19.00
2012,07,21,09,19,19.10
2012,07,21,09,20,19.20
2012,07,21,09,21,19.20
2012,07,21,09,22,19.20
2012,07,21,09,23,19.20
2012,07,21,09,24,19.30
2012,07,21,09,25,19.30
2012,07,21,09,26,19.30
2012,07,21,09,27,19.20
2012,07,21,09,28,19.20
2012,07,21,09,29,19.20
2012,07,21,09,30,19.20
2012,07,21,09,31,19.20
2012,07,21,09,32,19.20
2012,07,21,09,33,19.30
2012,07,21,09,34,19.30
2012,07,21,09,35,19.40
2012,07,21,09,36,19.40
2012,07,21,09,37,19.40
2012,07,21,09,38,19.40
2012,07,21,09,39,19.40
2012,07,21,09,40,19.40
2012,07,21,09,41,19.50
2012,07,21,09,42,19.50
2012,07,21,09,43,19.60
2012,07,21,09,44,19.70
2012,07,21,09,45,19.70
2012,07,21,09,46,19.70
2012,07,21,09,47,19.80
2012,07,21,09,48,19.80
2012,07,21,09,49,19.80
2012,07,21,09,50,19.80
2012,07,21,09,51,19.90
2012,07,21,09,52,19.90
2012,07,21,09,53,20.00
2012,07,21,09,54,20.00
2012,07,21,09,55,20.10
2012,07,21,09,56,20.20
2012,07,21,09,57,20.20
2012,07,21,09,58,20.20
2012,07,21,09,59,20.20
2012,07,21,10,00,20.30
2012,07,21,10,01,20.40
2012,07,21,10,02,20.40
2012,07,21,10,03,20.40
2012,07,21,10,04,20.50
2012,07,21,10,05,20.60
2012,07,21,10,06,20.60
2012,07,21,10,07,20.70
2012,07,21,10,08,20.80
2012,07,21,10,09,20.80
2012,07,21,10,10,20.80
2012,07,21,10,11,20.80
2012,07,21,10,12,20.80
2012,07,21,10,13,20.80
2012,07,21,10,14,20.80
2012,07,21,10,15,20.70
2012,07,21,10,16,20.70
2012,07,21,10,17,20.70
2012,07,21,10,18,20.60
2012,07,21,10,19,20.60
2012,07,21,10,20,20.70
2012,07,21,10,21,20.70
2012,07,21,10,22,20.70
2012,07,21,10,23,20.80
2012,07,21,10,24,20.80
2012,07,21,10,25,20.90
2012,07,21,10,26,21.00
2012,07,21,10,27,21.00
2012,07,21,10,28,21.00
2012,07,21,10,29,20.90
2012,07,21,10,30,20.80
2012,07,21,10,31,20.70
2012,07,21,10,32,20.60
2012,07,21,10,33,20.40
2012,07,21,10,34,20.20
2012,07,21,10,35,20.00
2012,07,21,10,36,19.80
2012,07,21,10,37,19.60
2012,07,21,10,38,19.50
2012,07,21,10,39,19.40
2012,07,21,10,40,19.30
2012,07,21,10,41,19.30
2012,07,21,10,42,19.20
2012,07,21,10,43,19.00
2012,07,21,10,44,18.80
2012,07,21,10,45,18.80
2012,07,21,10,46,18.70
2012,07,21,10,47,18.70
2012,07,21,10,48,18.70
2012,07,21,10,49,18.80
2012,07,21,10,50,18.80
2012,07,21,10,51,18.80
2012,07,21,10,52,18.80
2012,07,21,10,53,18.80
2012,07,21,10,54,18.70
2012,07,21,10,55,18.60
2012,07,21,10,56,18.60
2012,07,21,10,57,18.70
2012,07,21,10,58,18.70
2012,07,21,10,59,18.80
2012,07,21,11,00,18.80
2012,07,21,11,01,18.80
2012,07,21,11,02,18.70
2012,07,21,11,03,18.70
2012,07,21,11,04,18.60
2012,07,21,11,05,18.60
2012,07,21,11,06,18.60
2012,07,21,11,07,18.50
2012,07,21,11,08,18.50
2012,07,21,11,09,18.50
2012,07,21,11,10,18.50
2012,07,21,11,11,18.60
2012,07,21,11,12,18.60
2012,07,21,11,13,18.60
2012,07,21,11,14,18.60
2012,07,21,11,15,18.70
2012,07,21,11,16,18.70
2012,07,21,11,17,18.80
2012,07,21,11,18,18.80
2012,07,21,11,19,18.90
2012,07,21,11,20,18.90
2012,07,21,11,21,18.90
2012,07,21,11,22,18.90
2012,07,21,11,23,18.90
2012,07,21,11,24,18.90
2012,07,21,11,25,19.00
2012,07,21,11,26,19.10
2012,07,21,11,27,19.10
2012,07,21,11,28,19.20
2012,07,21,11,29,19.20
2012,07,21,11,30,19.20
2012,07,21,11,31,19.10
2012,07,21,11,32,19.10
2012,07,21,11,33,19.00
2012,07,21,11,34,18.90
2012,07,21,11,35,18.90
2012,07,21,11,36,18.80
2012,07,21,11,37,18.80
2012,07,21,11,38,18.80
2012,07,21,11,39,18.80
2012,07,21,11,40,18.90
2012,07,21,11,41,19.00
2012,07,21,11,42,19.10
2012,07,21,11,43,19.10
2012,07,21,11,44,19.20
2012,07,21,11,45,19.30
2012,07,21,11,46,19.40
2012,07,21,11,47,19.40
2012,07,21,11,48,19.40
2012,07,21,11,49,19.40
2012,07,21,11,50,19.40
2012,07,21,11,51,19.30
2012,07,21,11,52,19.30
2012,07,21,11,53,19.30
2012,07,21,11,54,19.20
2012,07,21,11,55,19.20
2012,07,21,11,56,19.20
2012,07,21,11,57,19.10
2012,07,21,11,58,19.10
2012,07,21,11,59,19.10
2012,07,21,12,00,19.10
2012,07,21,12,01,19.10
2012,07,21,12,02,19.10
2012,07,21,12,03,19.00
2012,07,21,12,04,19.00
2012,07,21,12,05,19.00
2012,07,21,12,06,19.00
2012,07,21,12,07,18.90
2012,07,21,12,08,18.90
2012,07,21,12,09,18.90
2012,07,21,12,10,18.90
2012,07,21,12,11,18.90
2012,07,21,12,12,18.90
2012,07,21,12,13,18.90
2012,07,21,12,14,19.00
2012,07,21,12,15,19.00
2012,07,21,12,16,19.00
2012,07,21,12,17,19.10
2012,07,21,12,18,19.10
2012,07,21,12,19,19.10
2012,07,21,12,20,19.10
2012,07,21,12,21,19.10
2012,07,21,12,22,19.20
2012,07,21,12,23,19.20
2012,07,21,12,24,19.20
2012,07,21,12,25,19.30
2012,07,21,12,26,19.30
2012,07,21,12,27,19.30
2012,07,21,12,28,19.30
2012,07,21,12,29,19.30
2012,07,21,12,30,19.30
2012,07,21,12,31,19.30
2012,07,21,12,32,19.30
2012,07,21,12,33,19.30
2012,07,21,12,34,19.20
2012,07,21,12,35,19.30
2012,07,21,12,36,19.30
2012,07,21,12,37,19.30
2012,07,21,12,38,19.30
2012,07,21,12,39,19.40
2012,07,21,12,40,19.40
2012,07,21,12,41,19.50
2012,07,21,12,42,19.50
2012,07,21,12,43,19.50
2012,07,21,12,44,19.50
2012,07,21,12,45,19.60
2012,07,21,12,46,19.60
2012,07,21,12,47,19.60
2012,07,21,12,48,19.70
2012,07,21,12,49,19.70
2012,07,21,12,50,19.80
2012,07,21,12,51,19.90
2012,07,21,12,52,19.90
2012,07,21,12,53,20.00
2012,07,21,12,54,20.00
2012,07,21,12,55,20.00
2012,07,21,12,56,20.10
2012,07,21,12,57,20.10
2012,07,21,12,58,20.10
2012,07,21,12,59,20.10
2012,07,21,13,00,20.20
2012,07,21,13,01,20.20
2012,07,21,13,02,20.30
2012,07,21,13,03,20.30
2012,07,21,13,04,20.30
2012,07,21,13,05,20.30
2012,07,21,13,06,20.30
2012,07,21,13,07,20.30
2012,07,21,13,08,20.30
2012,07,21,13,09,20.30
2012,07,21,13,10,20.30
2012,07,21,13,11,20.30
2012,07,21,13,12,20.40
2012,07,21,13,13,20.50
2012,07,21,13,14,20.60
2012,07,21,13,15,20.60
2012,07,21,13,16,20.70
2012,07,21,13,17,20.80
2012,07,21,13,18,20.80
2012,07,21,13,19,20.80
2012,07,21,13,20,20.90
2012,07,21,13,21,21.00
2012,07,21,13,22,21.10
2012,07,21,13,23,21.10
2012,07,21,13,24,21.20
2012,07,21,13,25,21.20
2012,07,21,13,26,21.10
2012,07,21,13,27,21.10
2012,07,21,13,28,21.10
2012,07,21,13,29,21.10
2012,07,21,13,30,21.20
2012,07,21,13,31,21.20
2012,07,21,13,32,21.30
2012,07,21,13,33,21.40
2012,07,21,13,34,21.50
2012,07,21,13,35,21.60
2012,07,21,13,36,21.50
2012,07,21,13,37,21.50
2012,07,21,13,38,21.40
2012,07,21,13,39,21.40
2012,07,21,13,40,21.30
2012,07,21,13,41,21.30
2012,07,21,13,42,21.30
2012,07,21,13,43,21.30
2012,07,21,13,44,21.30
2012,07,21,13,45,21.30
2012,07,21,13,46,21.30
2012,07,21,13,47,21.30
2012,07,21,13,48,21.30
2012,07,21,13,49,21.20
2012,07,21,13,50,21.20
2012,07,21,13,51,21.20
2012,07,21,13,52,21.10
2012,07,21,13,53,21.10
2012,07,21,13,54,21.10
2012,07,21,13,55,21.10
2012,07,21,13,56,21.20
2012,07,21,13,57,21.20
2012,07,21,13,58,21.30
2012,07,21,13,59,21.30
2012,07,21,14,00,21.30
2012,07,21,14,01,21.20
2012,07,21,14,02,21.20
2012,07,21,14,03,21.20
2012,07,21,14,04,21.10
2012,07,21,14,05,21.00
2012,07,21,14,06,20.70
2012,07,21,14,07,20.50
2012,07,21,14,08,20.30
2012,07,21,14,09,20.10
2012,07,21,14,10,19.90
2012,07,21,14,11,19.80
2012,07,21,14,12,19.70
2012,07,21,14,13,19.60
2012,07,21,14,14,19.50
2012,07,21,14,15,19.40
2012,07,21,14,16,19.40
2012,07,21,14,17,19.30
2012,07,21,14,18,19.20
2012,07,21,14,19,19.10
2012,07,21,14,20,19.00
2012,07,21,14,21,18.90
2012,07,21,14,22,18.80
2012,07,21,14,23,18.80
2012,07,21,14,24,18.70
2012,07,21,14,25,18.70
2012,07,21,14,26,18.60
2012,07,21,14,27,18.60
2012,07,21,14,28,18.60
2012,07,21,14,29,18.60
2012,07,21,14,30,18.60
2012,07,21,14,31,18.60
2012,07,21,14,32,18.70
2012,07,21,14,33,18.70
2012,07,21,14,34,18.70
2012,07,21,14,35,18.70
2012,07,21,14,36,18.70
2012,07,21,14,37,18.60
2012,07,21,14,38,18.60
2012,07,21,14,39,18.60
2012,07,21,14,40,18.70
2012,07,21,14,41,18.80
2012,07,21,14,42,19.00
2012,07,21,14,43,19.10
2012,07,21,14,44,19.10
2012,07,21,14,45,19.20
2012,07,21,14,46,19.20
2012,07,21,14,47,19.30
2012,07,21,14,48,19.30
2012,07,21,14,49,19.30
2012,07,21,14,50,19.30
2012,07,21,14,51,19.30
2012,07,21,14,52,19.30
2012,07,21,14,53,19.30
2012,07,21,14,54,19.40
2012,07,21,14,55,19.40
2012,07,21,14,56,19.50
2012,07,21,14,57,19.40
2012,07,21,14,58,19.50
2012,07,21,14,59,19.50
2012,07,21,15,00,19.50
2012,07,21,15,01,19.60
2012,07,21,15,02,19.60
2012,07,21,15,03,19.70
2012,07,21,15,04,19.70
2012,07,21,15,05,19.70
2012,07,21,15,06,19.60
2012,07,21,15,07,19.50
2012,07,21,15,08,19.40
2012,07,21,15,09,19.40
2012,07,21,15,10,19.40
2012,07,21,15,11,19.40
2012,07,21,15,12,19.50
2012,07,21,15,13,19.50
2012,07,21,15,14,19.50
2012,07,21,15,15,19.50
2012,07,21,15,16,19.40
2012,07,21,15,17,19.40
2012,07,21,15,18,19.40
2012,07,21,15,19,19.30
2012,07,21,15,20,19.30
2012,07,21,15,21,19.30
2012,07,21,15,22,19.30
2012,07,21,15,23,19.30
2012,07,21,15,24,19.20
2012,07,21,15,25,19.10
2012,07,21,15,26,19.10
2012,07,21,15,27,19.00
2012,07,21,15,28,18.90
2012,07,21,15,29,18.90
2012,07,21,15,30,18.80
2012,07,21,15,31,18.80
2012,07,21,15,32,18.70
2012,07,21,15,33,18.70
2012,07,21,15,34,18.70
2012,07,21,15,35,18.70
2012,07,21,15,36,18.70
2012,07,21,15,37,18.70
2012,07,21,15,38,18.70
2012,07,21,15,39,18.70
2012,07,21,15,40,18.70
2012,07,21,15,41,18.70
2012,07,21,15,42,18.70
2012,07,21,15,43,18.60
2012,07,21,15,44,18.60
2012,07,21,15,45,18.60
2012,07,21,15,46,18.60
2012,07,21,15,47,18.60
2012,07,21,15,48,18.60
2012,07,21,15,49,18.70
2012,07,21,15,50,18.70
2012,07,21,15,51,18.80
2012,07,21,15,52,18.80
2012,07,21,15,53,18.90
2012,07,21,15,54,18.90
2012,07,21,15,55,18.90
2012,07,21,15,56,18.90
2012,07,21,15,57,18.80
2012,07,21,15,58,18.80
2012,07,21,15,59,18.80
2012,07,21,16,00,18.80
2012,07,21,16,01,18.80
2012,07,21,16,02,18.80
2012,07,21,16,03,18.80
2012,07,21,16,04,18.80
2012,07,21,16,05,18.80
2012,07,21,16,06,18.80
2012,07,21,16,07,18.90
2012,07,21,16,08,19.00
2012,07,21,16,09,19.00
2012,07,21,16,10,19.10
2012,07,21,16,11,19.30
2012,07,21,16,12,19.40
2012,07,21,16,13,19.50
2012,07,21,16,14,19.50
2012,07,21,16,15,19.60
2012,07,21,16,16,19.60
2012,07,21,16,17,19.70
2012,07,21,16,18,19.70
2012,07,21,16,19,19.70
2012,07,21,16,20,19.70
2012,07,21,16,21,19.70
2012,07,21,16,22,19.80
2012,07,21,16,23,19.80
2012,07,21,16,24,19.90
2012,07,21,16,25,19.90
2012,07,21,16,26,19.90
2012,07,21,16,27,19.90
2012,07,21,16,28,20.00
2012,07,21,16,29,20.00
2012,07,21,16,30,20.10
2012,07,21,16,31,20.10
2012,07,21,16,32,20.10
2012,07,21,16,33,20.20
2012,07,21,16,34,20.20
2012,07,21,16,35,20.10
2012,07,21,16,36,20.10
2012,07,21,16,37,20.10
2012,07,21,16,38,20.10
2012,07,21,16,39,20.10
2012,07,21,16,40,20.10
2012,07,21,16,41,20.10
2012,07,21,16,42,20.00
2012,07,21,16,43,19.90
2012,07,21,16,44,19.90
2012,07,21,16,45,19.80
2012,07,21,16,46,19.80
2012,07,21,16,47,19.70
2012,07,21,16,48,19.70
2012,07,21,16,49,19.70
2012,07,21,16,50,19.60
2012,07,21,16,51,19.60
2012,07,21,16,52,19.60
2012,07,21,16,53,19.60
2012,07,21,16,54,19.50
2012,07,21,16,55,19.50
2012,07,21,16,56,19.40
2012,07,21,16,57,19.40
2012,07,21,16,58,19.30
2012,07,21,16,59,19.30
2012,07,21,17,00,19.30
2012,07,21,17,01,19.30
2012,07,21,17,02,19.20
2012,07,21,17,03,19.10
2012,07,21,17,04,19.10
2012,07,21,17,05,19.10
2012,07,21,17,06,19.10
2012,07,21,17,07,19.10
2012,07,21,17,08,19.20
2012,07,21,17,09,19.20
2012,07,21,17,10,19.20
2012,07,21,17,11,19.30
2012,07,21,17,12,19.40
2012,07,21,17,13,19.50
2012,07,21,17,14,19.50
2012,07,21,17,15,19.60
2012,07,21,17,16,19.60
2012,07,21,17,17,19.60
2012,07,21,17,18,19.70
2012,07,21,17,19,19.70